Dewpoint
18 15 20 19 24 22 23 22 20 18 17 20 22 25 26 28 30 31 33 35 39 41 43 43 47 51 54 57 59 61 60 62 61 61 61 62 60 61 62 63 64 63 63 63
16 14 17 19 19 19 17 15 16 18 18 23 24 25 28 29 27 30 32 34 37 39 42 47 49 52 55 57 59 60 61 62 62 62 63 63 63 62 63 63 64 63 62 63
13 12 13 18 21 19 18 17 16 17 25 27 27 24 23 25 29 27 33 37 39 41 43 49 50 53 55 57 58 60 61 62 62 64 63 63 62 62 61 61 61 62 62 62
12 11 10 14 17 21 20 20 17 20 22 19 26 21 25 23 24 30 35 37 38 39 47 49 51 53 55 56 58 60 61 62 63 63 63 63 61 60 61 61 62 62 62 62
14 11 10 13 15 20 19 22 24 24 25 26 22 21 21 29 24 24 28 35 38 44 48 49 50 53 54 56 57 59 61 63 63 63 63 62 61 61 61 62 62 63 64 63
15 13 11 10 15 20 23 23 28 28 25 22 22 19 19 19 23 25 28 33 41 47 48 49 51 53 54 55 57 59 62 63 63 62 63 62 61 61 60 61 62 62 62 63
17 14 13 10 12 20 25 24 20 20 20 20 22 22 22 25 28 31 31 34 42 48 48 49 51 51 53 55 57 59 61 62 62 62 61 60 61 61 61 61 61 61 61 62
19 16 15 11 11 16 22 23 17 18 18 16 23 18 19 28 28 31 33 36 44 48 48 48 50 51 52 55 57 58 60 61 61 61 61 61 61 60 61 62 62 62 62 63
21 18 18 13 14 14 20 19 19 18 24 16 18 27 31 33 34 35 33 38 44 49 49 48 50 51 53 55 58 59 59 60 60 61 61 61 61 61 61 62 64 63 64 63
27 21 19 15 12 17 21 22 18 17 13 13 20 24 19 30 32 34 36 41 46 49 49 48 49 51 53 56 58 59 59 59 60 61 61 60 62 62 61 62 62 63 64 63
30 27 21 17 14 13 15 18 18 18 17 10 10 16 35 32 36 35 38 43 46 48 48 48 49 51 53 56 55 58 58 58 59 60 61 61 62 61 61 62 62 63 64 63
33 33 22 18 17 16 16 18 20 13 20 16 16 14 32 37 36 38 40 44 46 48 48 48 49 50 52 55 55 57 58 57 58 59 60 61 61 60 61 62 62 62 62 62
38 30 21 21 20 20 18 16 20 23 26 19 12 17 28 33 34 37 41 44 47 48 49 48 49 50 50 53 53 55 57 57 57 58 59 61 61 60 61 62 62 62 62 62
38 34 28 18 20 23 18 16 17 21 17 16 14 14 21 28 29 34 41 45 46 48 49 49 49 49 50 52 52 53 55 56 57 57 59 60 61 60 61 62 62 62 62 62
37 30 28 27 26 27 27 17 15 17 19 15 19 19 19 26 26 34 42 45 46 47 48 49 49 50 51 52 52 52 54 56 57 57 58 60 61 61 60 61 62 63 63 62
37 31 29 25 24 24 25 25 18 15 16 17 20 21 25 26 33 38 42 44 44 46 47 48 49 50 51 51 51 53 54 55 56 56 57 59 59 59 61 61 61 62 62 62
32 31 29 23 23 24 21 23 24 20 18 17 15 20 22 26 29 33 43 44 44 46 47 48 49 50 51 52 52 53 54 55 55 55 57 58 59 59 60 60 59 61 62 62
32 31 30 23 26 19 22 32 25 24 22 21 20 21 21 22 26 31 38 43 45 46 47 49 50 51 52 52 52 53 53 54 54 54 55 57 57 59 60 58 60 61 62 62
35 34 28 23 26 26 28 36 36 26 30 37 37 30 26 30 32 32 37 43 46 48 49 50 51 52 53 52 52 52 52 53 53 52 53 55 57 59 59 57 59 59 61 61
33 34 31 29 25 19 36 37 37 37 28 38 39 39 40 43 22 21 33 43 46 48 49 50 51 52 53 53 53 52 51 52 52 52 52 55 56 58 59 59 59 59 60 60
33 35 30 28 28 29 38 37 37 31 31 39 39 40 41 40 37 44 47 45 46 48 49 51 51 51 53 53 53 52 51 52 52 52 52 54 57 59 60 61 59 59 59 59
34 31 28 30 27 27 39 36 33 37 40 39 39 40 40 42 43 44 46 46 47 47 48 49 49 50 53 53 53 51 52 52 52 52 52 54 57 57 58 60 58 58 59 58
32 35 36 35 34 40 40 40 41 39 39 39 40 39 40 42 46 48 49 46 46 47 47 47 48 50 52 52 53 52 53 52 52 53 53 54 56 57 59 60 58 55 57 54
36 39 36 37 39 39 39 38 39 39 40 39 39 40 41 42 44 49 51 48 43 46 47 48 48 49 50 52 52 54 52 51 51 53 54 55 55 56 59 57 56 54 54 52
37 38 38 36 38 39 39 38 37 39 39 39 39 40 41 42 43 47 49 44 40 45 46 48 48 49 49 51 51 52 51 50 53 54 54 54 53 55 57 58 57 55 56 53
39 38 36 35 37 38 38 38 40 39 39 40 39 39 42 43 45 47 50 40 41 44 46 47 49 49 48 49 50 51 50 51 55 54 53 52 51 52 53 55 56 43 48 47
Lifted_Index
7 6 5 5 5 4 3 3 3 3 3 2 2 1 1 2 3 3 4 4 3 2 2 1 1 1 1 1 0 -1 -1 -1 -1 -1 -1 -2 -1 -1 -1 -1 -1 -1 -1 -1
6 5 5 5 5 4 4 3 3 3 2 2 2 1 2 2 3 4 4 3 2 2 1 1 1 1 1 1 0 -0 -1 -1 -1 -1 -1 -1 -1 -1 -1 -1 -1 -1 -1 -1
5 5 5 5 5 4 4 4 3 2 2 1 1 2 2 3 4 4 3 2 2 1 1 1 1 1 1 1 1 0 -0 -1 -1 -1 -1 -1 -1 -1 -1 -0 -0 -0 -1 -1
5 6 5 4 4 4 4 4 3 2 1 1 2 2 3 3 3 3 2 2 2 1 1 2 1 1 1 1 1 1 0 -0 -1 -1 -1 -1 -0 -0 -0 -0 -0 -0 -1 -1
6 6 6 5 4 4 4 4 3 2 1 1 2 2 3 3 3 2 2 2 2 2 2 2 2 1 1 2 2 1 0 -1 -1 -1 -1 -0 -0 -0 -0 -0 -0 -1 -1 -1
7 7 7 6 6 5 5 4 3 2 1 2 2 2 2 2 2 2 2 2 2 2 2 2 2 2 2 2 2 1 0 -1 -1 -0 -0 0 0 0 -0 -0 -1 -1 -1 -2
7 7 7 7 6 6 5 4 3 1 1 2 3 2 1 2 3 2 2 2 2 2 2 2 2 2 2 2 2 1 -0 -1 -0 -0 0 1 1 0 -0 -1 -1 -1 -1 -2
5 5 6 7 7 6 5 4 3 2 2 3 3 3 3 3 3 2 2 2 2 2 2 2 2 3 3 3 2 1 0 -0 -0 -0 0 1 1 1 0 -1 -1 -1 -2 -2
5 5 6 7 7 6 5 5 4 3 2 2 3 3 3 3 2 2 3 2 2 2 2 2 3 3 3 2 1 1 0 -0 -1 -0 -0 0 1 0 0 -0 -1 -2 -2 -2
6 6 6 6 6 6 6 5 5 4 3 1 2 3 3 3 2 2 2 2 2 2 2 3 3 3 3 2 1 1 0 -0 -0 -0 -0 -0 0 0 0 -0 -1 -1 -2 -2
6 6 6 6 6 6 6 5 5 4 3 2 2 2 3 3 2 2 2 2 2 2 3 3 3 3 3 2 2 1 1 0 -0 -0 -0 -0 -0 0 0 -0 -1 -1 -1 -1
6 6 6 6 6 6 6 5 5 4 3 3 2 3 4 3 2 2 2 2 2 2 3 3 3 3 3 2 2 1 1 1 0 -0 -0 -0 -0 0 0 0 -0 -1 -1 -1
6 6 5 5 5 6 6 6 6 5 4 3 3 3 3 3 2 2 1 2 2 2 3 3 3 3 3 3 2 2 1 1 1 0 0 -0 0 1 1 1 0 -0 -1 -1
6 6 6 5 5 6 6 7 7 7 5 4 4 4 3 3 2 2 1 2 2 2 2 2 2 3 3 3 3 2 2 1 1 1 0 -0 -0 0 1 1 0 -0 -0 -0
5 6 6 6 5 6 6 7 7 7 6 6 5 4 3 3 2 2 1 2 2 2 2 2 2 3 3 3 3 3 2 2 1 1 1 0 -0 -0 0 0 0 0 -0 -0
5 5 6 6 5 6 6 7 7 8 7 7 5 5 4 3 3 2 1 1 2 2 2 2 2 3 3 3 3 3 2 2 2 2 1 0 -0 -0 -0 0 0 0 0 0
4 5 5 5 4 5 5 6 7 8 7 7 6 5 5 4 3 2 1 1 1 1 2 2 2 2 3 3 3 3 2 2 2 2 1 1 0 -0 0 1 1 0 0 1
4 4 4 3 3 4 5 6 7 7 7 7 6 6 5 4 3 3 2 1 1 1 1 2 2 2 3 3 3 3 3 2 2 2 2 1 0 0 0 1 1 1 1 1
4 4 3 3 3 3 4 5 6 6 6 7 6 6 5 5 4 3 3 2 1 0 1 1 2 2 3 3 3 3 3 3 2 2 2 1 1 0 0 1 2 2 1 1
3 3 3 3 3 3 4 4 5 5 6 7 7 6 5 5 4 4 3 2 1 0 1 1 2 2 3 3 3 3 3 3 2 2 2 2 1 0 0 1 2 2 2 2
2 2 3 3 2 2 3 4 4 5 6 7 7 6 5 5 4 3 3 2 1 0 1 1 1 2 3 3 3 3 3 3 2 2 2 2 1 0 0 1 2 2 2 2
2 2 2 2 2 2 2 4 5 6 7 7 6 5 4 4 4 4 3 3 2 1 1 1 1 1 2 3 3 3 3 3 2 2 2 2 1 1 0 1 2 2 2 2
2 2 2 2 2 2 3 5 6 7 7 6 6 4 4 4 4 3 3 3 2 1 1 1 1 1 2 2 3 3 2 3 3 2 2 2 2 1 1 1 2 2 3 3
2 2 2 3 3 3 3 5 7 7 6 6 5 4 3 3 3 3 3 3 3 2 1 1 1 1 1 2 2 2 2 3 3 2 2 2 2 1 1 1 1 2 2 3
3 3 3 3 3 3 3 5 6 6 6 5 5 4 3 3 3 3 3 3 3 3 2 1 1 1 1 1 2 2 2 3 3 2 2 3 3 2 1 1 1 2 2 2
3 3 3 3 4 4 4 4 5 5 5 5 4 3 3 3 3 3 3 3 3 3 2 2 1 1 1 1 2 2 2 3 3 2 3 3 3 3 2 1 1 1 2 2